Time,TemperatureF,DewpointF,PressureIn,WindDirection,WindDirectionDegrees,WindSpeedMPH,WindSpeedGustMPH,Humidity,HourlyPrecipIn,Conditions,Clouds,dailyrainin,SolarRadiationWatts/m^2,SoftwareType,DateUTC
2013-07-28 00:00:00,74.4,68.2,29.92,SSE,159,0.0,0.0,81,0.00,,---,0.00,0.00,VWS V14.00,2013-07-28 05:00:00,
2013-07-28 00:02:00,74.4,68.2,29.92,SSE,159,0.0,0.0,81,0.00,,---,0.00,0.00,VWS V14.00,2013-07-28 05:02:00,
2013-07-28 00:06:00,74.4,67.8,29.92,SSE,159,0.0,0.0,80,0.00,,---,0.00,0.00,VWS V14.00,2013-07-28 05:06:00,
2013-07-28 00:10:00,74.5,67.9,29.92,SSE,159,0.0,0.0,80,0.00,,---,0.00,0.00,VWS V14.00,2013-07-28 05:10:00,
2013-07-28 00:14:00,74.4,67.8,29.92,SSE,159,0.0,0.0,80,0.00,,---,0.00,0.00,VWS V14.00,2013-07-28 05:14:00,
2013-07-28 00:18:00,74.4,67.8,29.92,SSE,158,0.0,0.0,80,0.00,,---,0.00,0.00,VWS V14.00,2013-07-28 05:18:00,
2013-07-28 00:22:00,74.4,67.8,29.92,SSE,159,0.0,0.0,80,0.00,,---,0.00,0.00,VWS V14.00,2013-07-28 05:22:00,
2013-07-28 00:26:00,74.4,67.8,29.92,SSE,159,0.0,0.0,80,0.00,,---,0.00,0.00,VWS V14.00,2013-07-28 05:26:00,
2013-07-28 00:30:00,74.2,67.6,29.92,SSE,159,0.0,0.0,80,0.00,,---,0.00,0.00,VWS V14.00,2013-07-28 05:30:00,
2013-07-28 00:34:00,74.0,67.8,29.92,SSE,159,0.0,0.0,81,0.00,,---,0.00,0.00,VWS V14.00,2013-07-28 05:34:00,
2013-07-28 00:38:00,74.0,67.8,29.92,SSE,158,0.0,0.0,81,0.00,,---,0.00,0.00,VWS V14.00,2013-07-28 05:38:00,
2013-07-28 00:42:00,74.0,67.8,29.92,SSE,158,0.0,0.0,81,0.00,,---,0.00,0.00,VWS V14.00,2013-07-28 05:42:00,
2013-07-28 00:46:00,73.9,68.1,29.92,SSE,158,0.0,0.0,82,0.00,,---,0.00,0.00,VWS V14.00,2013-07-28 05:46:00,
2013-07-28 00:50:00,73.7,68.2,29.92,SSE,158,0.0,0.0,83,0.00,,---,0.00,0.00,VWS V14.00,2013-07-28 05:50:00,
2013-07-28 00:54:00,73.6,67.8,29.92,SSE,158,0.0,0.0,82,0.00,,---,0.00,0.00,VWS V14.00,2013-07-28 05:54:00,
2013-07-28 00:58:00,73.8,68.0,29.92,SSE,158,0.0,0.0,82,0.00,,---,0.00,0.00,VWS V14.00,2013-07-28 05:58:00,
2013-07-28 01:00:00,73.9,67.7,29.92,SSE,158,0.0,0.0,81,0.00,,---,0.00,0.00,VWS V14.00,2013-07-28 06:00:00,
2013-07-28 01:02:00,73.9,68.1,29.92,SSE,158,0.0,0.0,82,0.00,,---,0.00,0.00,VWS V14.00,2013-07-28 06:02:00,
2013-07-28 01:06:00,73.6,68.1,29.92,SSE,158,0.0,0.0,83,0.00,,---,0.00,0.00,VWS V14.00,2013-07-28 06:06:00,
2013-07-28 01:10:00,73.3,67.8,29.92,SSE,158,0.0,0.0,83,0.00,,---,0.00,0.00,VWS V14.00,2013-07-28 06:10:00,
2013-07-28 01:14:00,72.7,67.6,29.91,SSE,158,0.0,0.0,84,0.00,,---,0.00,0.00,VWS V14.00,2013-07-28 06:14:00,
2013-07-28 01:18:00,71.9,67.2,29.91,SSE,158,0.0,0.0,85,0.00,,---,0.00,0.00,VWS V14.00,2013-07-28 06:18:00,
2013-07-28 01:27:00,70.3,66.9,29.91,SSE,158,0.0,0.0,89,0.00,,---,0.00,0.00,VWS V14.00,2013-07-28 06:27:00,
2013-07-28 01:30:00,70.0,66.9,29.92,SSE,158,0.0,0.0,90,0.00,,---,0.00,0.00,VWS V14.00,2013-07-28 06:30:00,
2013-07-28 01:31:00,69.9,66.8,29.92,SSE,158,0.0,0.0,90,0.00,,---,0.00,0.00,VWS V14.00,2013-07-28 06:31:00,
2013-07-28 01:35:00,69.8,67.1,29.92,SSE,158,0.0,0.0,91,0.00,,---,0.00,0.00,VWS V14.00,2013-07-28 06:35:00,
2013-07-28 01:39:00,69.7,67.0,29.92,SSE,158,0.0,0.0,91,0.00,,---,0.00,0.00,VWS V14.00,2013-07-28 06:39:00,
2013-07-28 01:43:00,69.6,66.9,29.92,SSE,158,0.0,0.0,91,0.00,,---,0.00,0.00,VWS V14.00,2013-07-28 06:43:00,
2013-07-28 01:47:00,69.6,67.2,29.90,SSE,158,0.0,0.0,92,0.00,,---,0.00,0.00,VWS V14.00,2013-07-28 06:47:00,
2013-07-28 01:51:00,69.6,67.2,29.90,SSE,158,0.0,0.0,92,0.00,,---,0.00,0.00,VWS V14.00,2013-07-28 06:51:00,
2013-07-28 01:55:00,69.6,67.2,29.90,SSE,158,0.0,0.0,92,0.00,,---,0.00,0.00,VWS V14.00,2013-07-28 06:55:00,
2013-07-28 01:59:00,69.5,67.1,29.90,SSE,158,0.0,0.0,92,0.00,,---,0.00,0.00,VWS V14.00,2013-07-28 06:59:00,
2013-07-28 02:00:00,69.4,67.0,29.90,SSE,158,0.0,0.0,92,0.00,,---,0.00,0.00,VWS V14.00,2013-07-28 07:00:00,
2013-07-28 02:07:00,69.1,66.7,29.90,SSE,158,0.0,0.0,92,0.00,,---,0.00,0.00,VWS V14.00,2013-07-28 07:07:00,
2013-07-28 02:11:00,69.0,66.6,29.90,SSE,158,0.0,0.0,92,0.00,,---,0.00,0.00,VWS V14.00,2013-07-28 07:11:00,
2013-07-28 02:15:00,69.1,66.7,29.90,SSE,158,0.0,0.0,92,0.00,,---,0.00,0.00,VWS V14.00,2013-07-28 07:15:00,
2013-07-28 02:19:00,69.2,67.1,29.90,SSE,158,0.0,0.0,93,0.00,,---,0.00,0.00,VWS V14.00,2013-07-28 07:19:00,
2013-07-28 02:23:00,69.2,66.8,29.90,SSE,158,0.0,0.0,92,0.00,,---,0.00,0.00,VWS V14.00,2013-07-28 07:23:00,
2013-07-28 02:27:00,69.2,66.8,29.90,SSE,158,0.0,0.0,92,0.00,,---,0.00,0.00,VWS V14.00,2013-07-28 07:27:00,
2013-07-28 02:30:00,69.3,66.9,29.90,SSE,158,0.0,0.0,92,0.00,,---,0.00,0.00,VWS V14.00,2013-07-28 07:30:00,
2013-07-28 02:31:00,69.4,67.0,29.90,SSE,158,0.0,0.0,92,0.00,,---,0.00,0.00,VWS V14.00,2013-07-28 07:31:00,
2013-07-28 02:35:00,69.5,67.1,29.90,SSE,158,0.0,0.0,92,0.00,,---,0.00,0.00,VWS V14.00,2013-07-28 07:35:00,
2013-07-28 02:39:00,69.7,67.3,29.90,SSE,158,0.0,0.0,92,0.00,,---,0.00,0.00,VWS V14.00,2013-07-28 07:39:00,
2013-07-28 02:43:00,69.7,67.3,29.90,SSE,158,0.0,0.0,92,0.00,,---,0.00,0.00,VWS V14.00,2013-07-28 07:43:00,
2013-07-28 02:47:00,69.7,67.3,29.90,SSE,158,0.0,0.0,92,0.00,,---,0.00,0.00,VWS V14.00,2013-07-28 07:47:00,
2013-07-28 02:52:00,69.7,67.3,29.90,SSE,158,0.0,0.0,92,0.00,,---,0.00,0.00,VWS V14.00,2013-07-28 07:52:00,
2013-07-28 02:56:00,69.7,67.3,29.90,SSE,158,0.0,0.0,92,0.00,,---,0.00,0.00,VWS V14.00,2013-07-28 07:56:00,
2013-07-28 03:00:00,69.7,67.3,29.90,SSE,158,0.0,0.0,92,0.00,,---,0.00,0.00,VWS V14.00,2013-07-28 08:00:00,
2013-07-28 03:04:00,69.7,67.3,29.90,SSE,158,0.0,0.0,92,0.00,,---,0.00,0.00,VWS V14.00,2013-07-28 08:04:00,
2013-07-28 03:08:00,69.7,67.3,29.90,SSE,158,0.0,0.0,92,0.00,,---,0.00,0.00,VWS V14.00,2013-07-28 08:08:00,
2013-07-28 03:12:00,69.7,67.3,29.90,SSE,158,0.0,0.0,92,0.00,,---,0.00,0.00,VWS V14.00,2013-07-28 08:12:00,
2013-07-28 03:16:00,69.7,67.3,29.90,SSE,158,0.0,0.0,92,0.00,,---,0.00,0.00,VWS V14.00,2013-07-28 08:16:00,
2013-07-28 03:20:00,69.7,67.3,29.90,SSE,158,0.0,0.0,92,0.00,,---,0.00,0.00,VWS V14.00,2013-07-28 08:20:00,
2013-07-28 03:24:00,69.7,67.3,29.90,SSE,158,0.0,0.0,92,0.00,,---,0.00,0.00,VWS V14.00,2013-07-28 08:24:00,
2013-07-28 03:30:00,69.7,67.3,29.90,SSE,158,0.0,0.0,92,0.00,,---,0.00,0.00,VWS V14.00,2013-07-28 08:30:00,
2013-07-28 03:32:00,69.7,67.3,29.90,SSE,158,0.0,0.0,92,0.00,,---,0.00,0.00,VWS V14.00,2013-07-28 08:32:00,
2013-07-28 03:36:00,69.7,67.3,29.90,SSE,158,0.0,0.0,92,0.00,,---,0.00,0.00,VWS V14.00,2013-07-28 08:36:00,
2013-07-28 03:40:00,69.7,67.3,29.90,SSE,158,0.0,0.0,92,0.00,,---,0.00,0.00,VWS V14.00,2013-07-28 08:40:00,
2013-07-28 03:44:00,69.7,67.3,29.90,SSE,158,0.0,0.0,92,0.00,,---,0.00,0.00,VWS V14.00,2013-07-28 08:44:00,
2013-07-28 03:48:00,69.7,67.3,29.90,SSE,158,0.0,0.0,92,0.00,,---,0.00,0.00,VWS V14.00,2013-07-28 08:48:00,
2013-07-28 03:52:00,69.7,67.3,29.90,SSE,158,0.0,0.0,92,0.00,,---,0.00,0.00,VWS V14.00,2013-07-28 08:52:00,
2013-07-28 03:56:00,69.7,67.3,29.90,SSE,158,0.0,0.0,92,0.00,,---,0.00,0.00,VWS V14.00,2013-07-28 08:56:00,
2013-07-28 04:00:00,69.7,67.3,29.89,SSE,158,0.0,0.0,92,0.00,,---,0.00,0.00,VWS V14.00,2013-07-28 09:00:00,
2013-07-28 04:04:00,69.7,67.3,29.89,SSE,158,0.0,0.0,92,0.00,,---,0.00,0.00,VWS V14.00,2013-07-28 09:04:00,
2013-07-28 04:08:00,69.7,67.3,29.89,SSE,158,0.0,0.0,92,0.00,,---,0.00,0.00,VWS V14.00,2013-07-28 09:08:00,
2013-07-28 04:12:00,69.7,67.3,29.89,SSE,158,0.0,0.0,92,0.00,,---,0.00,0.00,VWS V14.00,2013-07-28 09:12:00,
2013-07-28 04:16:00,69.7,67.3,29.90,SSE,158,0.0,0.0,92,0.00,,---,0.00,0.00,VWS V14.00,2013-07-28 09:16:00,
2013-07-28 04:20:00,69.7,67.3,29.90,SSE,158,0.0,0.0,92,0.00,,---,0.00,0.00,VWS V14.00,2013-07-28 09:20:00,
2013-07-28 04:25:00,69.7,67.3,29.90,SSE,158,0.0,0.0,92,0.00,,---,0.00,0.00,VWS V14.00,2013-07-28 09:25:00,
2013-07-28 04:29:00,69.7,67.3,29.90,SSE,158,0.0,0.0,92,0.00,,---,0.00,0.00,VWS V14.00,2013-07-28 09:29:00,
2013-07-28 04:30:00,69.7,67.3,29.90,SSE,158,0.0,0.0,92,0.00,,---,0.00,0.00,VWS V14.00,2013-07-28 09:30:00,
2013-07-28 04:33:00,69.7,67.3,29.89,SSE,158,0.0,0.0,92,0.00,,---,0.00,0.00,VWS V14.00,2013-07-28 09:33:00,
2013-07-28 04:37:00,69.7,67.3,29.89,SSE,158,0.0,0.0,92,0.00,,---,0.00,0.00,VWS V14.00,2013-07-28 09:37:00,
2013-07-28 04:41:00,69.7,67.3,29.89,SSE,158,0.0,0.0,92,0.00,,---,0.00,0.00,VWS V14.00,2013-07-28 09:41:00,
2013-07-28 04:45:00,69.7,67.3,29.89,SSE,158,0.0,0.0,92,0.00,,---,0.00,0.00,VWS V14.00,2013-07-28 09:45:00,
2013-07-28 04:49:00,69.7,67.3,29.89,SSE,158,0.0,0.0,92,0.00,,---,0.00,0.00,VWS V14.00,2013-07-28 09:49:00,
2013-07-28 04:57:00,69.7,67.3,29.89,SSE,158,0.0,0.0,92,0.00,,---,0.00,0.00,VWS V14.00,2013-07-28 09:57:00,
2013-07-28 05:00:00,69.7,67.3,29.90,SSE,158,0.0,0.0,92,0.00,,---,0.00,0.00,VWS V14.00,2013-07-28 10:00:00,
2013-07-28 05:01:00,69.7,67.3,29.90,SSE,158,0.0,0.0,92,0.00,,---,0.00,0.00,VWS V14.00,2013-07-28 10:01:00,
2013-07-28 05:05:00,69.7,67.3,29.90,SSE,158,0.0,0.0,92,0.00,,---,0.00,0.00,VWS V14.00,2013-07-28 10:05:00,
2013-07-28 05:09:00,69.7,67.3,29.90,SSE,158,0.0,0.0,92,0.00,,---,0.00,0.00,VWS V14.00,2013-07-28 10:09:00,
2013-07-28 05:13:00,69.7,67.3,29.90,SSE,158,0.0,0.0,92,0.00,,---,0.00,0.00,VWS V14.00,2013-07-28 10:13:00,
2013-07-28 05:17:00,69.7,67.3,29.91,SSE,158,0.0,0.0,92,0.00,,---,0.00,0.00,VWS V14.00,2013-07-28 10:17:00,
2013-07-28 05:21:00,69.7,67.3,29.91,SSE,158,0.0,0.0,92,0.00,,---,0.00,0.00,VWS V14.00,2013-07-28 10:21:00,
2013-07-28 05:25:00,69.7,67.3,29.91,SSE,158,0.0,0.0,92,0.00,,---,0.00,0.00,VWS V14.00,2013-07-28 10:25:00,
2013-07-28 05:29:00,69.7,67.3,29.91,SSE,158,0.0,0.0,92,0.00,,---,0.00,0.00,VWS V14.00,2013-07-28 10:29:00,
2013-07-28 05:30:00,69.7,67.3,29.91,SSE,158,0.0,0.0,92,0.00,,---,0.00,0.00,VWS V14.00,2013-07-28 10:30:00,
2013-07-28 05:33:00,69.7,67.3,29.91,SSE,158,0.0,0.0,92,0.00,,---,0.00,0.00,VWS V14.00,2013-07-28 10:33:00,
2013-07-28 05:41:00,69.7,67.3,29.91,SSE,158,0.0,0.0,92,0.00,,---,0.00,0.00,VWS V14.00,2013-07-28 10:41:00,
2013-07-28 05:46:00,69.7,67.3,29.91,SSE,158,0.0,0.0,92,0.00,,---,0.00,0.00,VWS V14.00,2013-07-28 10:46:00,
2013-07-28 05:50:00,69.7,67.3,29.91,SSE,158,0.0,0.0,92,0.00,,---,0.00,0.00,VWS V14.00,2013-07-28 10:50:00,
2013-07-28 05:54:00,69.7,67.3,29.91,SSE,158,0.0,0.0,92,0.00,,---,0.00,0.00,VWS V14.00,2013-07-28 10:54:00,
2013-07-28 05:58:00,69.7,67.3,29.91,SSE,158,0.0,0.0,92,0.00,,---,0.00,0.00,VWS V14.00,2013-07-28 10:58:00,
2013-07-28 06:00:00,69.7,67.3,29.91,SSE,158,0.0,0.0,92,0.00,,---,0.00,0.00,VWS V14.00,2013-07-28 11:00:00,
2013-07-28 06:02:00,69.7,67.3,29.91,SSE,158,0.0,0.0,92,0.00,,---,0.00,0.00,VWS V14.00,2013-07-28 11:02:00,
2013-07-28 06:06:00,69.7,67.3,29.91,SSE,158,0.0,0.0,92,0.00,,---,0.00,0.00,VWS V14.00,2013-07-28 11:06:00,
2013-07-28 06:10:00,69.7,67.3,29.91,SSE,158,0.0,0.0,92,0.00,,---,0.00,0.00,VWS V14.00,2013-07-28 11:10:00,
2013-07-28 06:14:00,69.7,67.3,29.92,SSE,158,0.0,0.0,92,0.00,,---,0.00,0.00,VWS V14.00,2013-07-28 11:14:00,
2013-07-28 06:22:00,69.7,67.3,29.92,SSE,158,0.0,0.0,92,0.00,,---,0.00,0.00,VWS V14.00,2013-07-28 11:22:00,
2013-07-28 06:26:00,69.7,67.3,29.92,SSE,158,0.0,0.0,92,0.00,,---,0.00,0.00,VWS V14.00,2013-07-28 11:26:00,
2013-07-28 06:30:00,69.7,67.3,29.93,SSE,158,0.0,0.0,92,0.00,,---,0.00,0.00,VWS V14.00,2013-07-28 11:30:00,
2013-07-28 06:34:00,69.7,67.3,29.93,SSE,158,0.0,0.0,92,0.00,,---,0.00,0.00,VWS V14.00,2013-07-28 11:34:00,
2013-07-28 06:38:00,69.7,67.3,29.93,SSE,158,0.0,0.0,92,0.00,,---,0.00,0.00,VWS V14.00,2013-07-28 11:38:00,
2013-07-28 06:42:00,69.7,67.3,29.93,SSE,158,0.0,0.0,92,0.00,,---,0.00,0.00,VWS V14.00,2013-07-28 11:42:00,
2013-07-28 06:46:00,69.7,67.3,29.94,SSE,158,0.0,0.0,92,0.00,,---,0.00,0.00,VWS V14.00,2013-07-28 11:46:00,
2013-07-28 06:50:00,69.7,67.3,29.94,SSE,158,0.0,0.0,92,0.00,,---,0.00,0.00,VWS V14.00,2013-07-28 11:50:00,
2013-07-28 06:54:00,69.7,67.3,29.94,SSE,158,0.0,0.0,92,0.00,,---,0.00,0.00,VWS V14.00,2013-07-28 11:54:00,
2013-07-28 06:58:00,69.7,67.3,29.94,SSE,158,0.0,0.0,92,0.00,,---,0.00,0.00,VWS V14.00,2013-07-28 11:58:00,
2013-07-28 07:00:00,69.7,67.3,29.94,SSE,158,0.0,0.0,92,0.00,,---,0.00,0.00,VWS V14.00,2013-07-28 12:00:00,
2013-07-28 07:02:00,69.7,67.3,29.94,SSE,158,0.0,0.0,92,0.00,,---,0.00,0.00,VWS V14.00,2013-07-28 12:02:00,
2013-07-28 07:06:00,69.7,67.3,29.94,SSE,158,0.0,0.0,92,0.00,,---,0.00,0.00,VWS V14.00,2013-07-28 12:06:00,
2013-07-28 07:10:00,69.7,67.3,29.94,SSE,158,0.0,0.0,92,0.00,,---,0.00,0.00,VWS V14.00,2013-07-28 12:10:00,
2013-07-28 07:14:00,69.7,67.3,29.95,SSE,158,0.0,0.0,92,0.00,,---,0.00,0.00,VWS V14.00,2013-07-28 12:14:00,
2013-07-28 07:18:00,69.7,67.3,29.95,SSE,158,0.0,0.0,92,0.00,,---,0.00,0.00,VWS V14.00,2013-07-28 12:18:00,
2013-07-28 07:22:00,69.7,67.3,29.95,SSE,158,0.0,0.0,92,0.00,,---,0.00,0.00,VWS V14.00,2013-07-28 12:22:00,
2013-07-28 07:26:00,69.7,67.3,29.95,SSE,158,0.0,0.0,92,0.00,,---,0.00,0.00,VWS V14.00,2013-07-28 12:26:00,
2013-07-28 07:30:00,69.7,67.3,29.95,SSE,158,0.0,0.0,92,0.00,,---,0.00,0.00,VWS V14.00,2013-07-28 12:30:00,
2013-07-28 07:31:00,69.7,67.3,29.95,SSE,158,0.0,0.0,92,0.00,,---,0.00,0.00,VWS V14.00,2013-07-28 12:31:00,
2013-07-28 07:35:00,69.7,67.3,29.95,SSE,158,0.0,0.0,92,0.00,,---,0.00,0.00,VWS V14.00,2013-07-28 12:35:00,
2013-07-28 07:39:00,69.7,67.3,29.95,SSE,158,0.0,0.0,92,0.00,,---,0.00,0.00,VWS V14.00,2013-07-28 12:39:00,
2013-07-28 07:43:00,69.7,67.3,29.95,SSE,158,0.0,0.0,92,0.00,,---,0.00,0.00,VWS V14.00,2013-07-28 12:43:00,
2013-07-28 07:47:00,69.7,67.3,29.95,SSE,158,0.0,0.0,92,0.00,,---,0.00,0.00,VWS V14.00,2013-07-28 12:47:00,
2013-07-28 07:51:00,69.7,67.3,29.95,SSE,158,0.0,0.0,92,0.00,,---,0.00,0.00,VWS V14.00,2013-07-28 12:51:00,
2013-07-28 07:55:00,69.7,67.3,29.95,SSE,158,0.0,0.0,92,0.00,,---,0.00,0.00,VWS V14.00,2013-07-28 12:55:00,
2013-07-28 07:59:00,69.7,67.3,29.96,SSE,158,0.0,0.0,92,0.00,,---,0.00,0.00,VWS V14.00,2013-07-28 12:59:00,
2013-07-28 08:00:00,69.7,67.3,29.96,SSE,158,0.0,0.0,92,0.00,,---,0.00,0.00,VWS V14.00,2013-07-28 13:00:00,
2013-07-28 08:03:00,69.7,67.3,29.96,SSE,158,0.0,0.0,92,0.00,,---,0.00,0.00,VWS V14.00,2013-07-28 13:03:00,
2013-07-28 08:07:00,69.7,67.3,29.96,SSE,158,0.0,0.0,92,0.00,,---,0.00,0.00,VWS V14.00,2013-07-28 13:07:00,
2013-07-28 08:11:00,69.7,67.3,29.96,SSE,158,0.0,0.0,92,0.00,,---,0.00,0.00,VWS V14.00,2013-07-28 13:11:00,
2013-07-28 08:15:00,69.7,67.3,29.96,SSE,158,0.0,0.0,92,0.00,,---,0.00,0.00,VWS V14.00,2013-07-28 13:15:00,
2013-07-28 08:19:00,69.7,67.3,29.96,SSE,158,0.0,0.0,92,0.00,,---,0.00,0.00,VWS V14.00,2013-07-28 13:19:00,
2013-07-28 08:23:00,69.7,67.3,29.96,SSE,158,0.0,0.0,92,0.00,,---,0.00,0.00,VWS V14.00,2013-07-28 13:23:00,
2013-07-28 08:27:00,69.7,67.3,29.96,SSE,158,0.0,0.0,92,0.00,,---,0.00,0.00,VWS V14.00,2013-07-28 13:27:00,
2013-07-28 08:30:00,69.7,67.3,29.96,SSE,158,0.0,0.0,92,0.00,,---,0.00,0.00,VWS V14.00,2013-07-28 13:30:00,
2013-07-28 08:31:00,69.7,67.3,29.96,SSE,158,0.0,0.0,92,0.00,,---,0.00,0.00,VWS V14.00,2013-07-28 13:31:00,
2013-07-28 08:35:00,69.7,67.3,29.96,SSE,158,0.0,0.0,92,0.00,,---,0.00,0.00,VWS V14.00,2013-07-28 13:35:00,
2013-07-28 08:39:00,69.7,67.3,29.96,SSE,158,0.0,0.0,92,0.00,,---,0.00,0.00,VWS V14.00,2013-07-28 13:39:00,
2013-07-28 08:43:00,69.7,67.3,29.96,SSE,158,0.0,0.0,92,0.00,,---,0.00,0.00,VWS V14.00,2013-07-28 13:43:00,
2013-07-28 08:47:00,69.7,67.3,29.96,SSE,158,0.0,0.0,92,0.00,,---,0.00,0.00,VWS V14.00,2013-07-28 13:47:00,
2013-07-28 08:51:00,69.7,67.3,29.96,SSE,158,0.0,0.0,92,0.00,,---,0.00,0.00,VWS V14.00,2013-07-28 13:51:00,
2013-07-28 08:56:00,69.7,67.3,29.96,SSE,158,0.0,0.0,92,0.00,,---,0.00,0.00,VWS V14.00,2013-07-28 13:56:00,
2013-07-28 09:00:00,69.7,67.3,29.96,SSE,158,0.0,0.0,92,0.00,,---,0.00,0.00,VWS V14.00,2013-07-28 14:00:00,
2013-07-28 09:04:00,69.7,67.3,29.96,SSE,158,0.0,0.0,92,0.00,,---,0.00,0.00,VWS V14.00,2013-07-28 14:04:00,
2013-07-28 09:08:00,69.7,67.3,29.96,SSE,158,0.0,0.0,92,0.00,,---,0.00,0.00,VWS V14.00,2013-07-28 14:08:00,
2013-07-28 09:12:00,69.7,67.3,29.96,SSE,158,0.0,0.0,92,0.00,,---,0.00,0.00,VWS V14.00,2013-07-28 14:12:00,
2013-07-28 09:16:00,69.7,67.3,29.95,SSE,158,0.0,0.0,92,0.00,,---,0.00,0.00,VWS V14.00,2013-07-28 14:16:00,
2013-07-28 09:20:00,69.7,67.3,29.95,SSE,158,0.0,0.0,92,0.00,,---,0.00,0.00,VWS V14.00,2013-07-28 14:20:00,
2013-07-28 09:24:00,69.7,67.3,29.95,SSE,158,0.0,0.0,92,0.00,,---,0.00,0.00,VWS V14.00,2013-07-28 14:24:00,
2013-07-28 09:28:00,69.7,67.3,29.95,SSE,158,0.0,0.0,92,0.00,,---,0.00,0.00,VWS V14.00,2013-07-28 14:28:00,
2013-07-28 09:30:00,69.7,67.3,29.95,SSE,158,0.0,0.0,92,0.00,,---,0.00,0.00,VWS V14.00,2013-07-28 14:30:00,
2013-07-28 09:32:00,69.7,67.3,29.95,SSE,158,0.0,0.0,92,0.00,,---,0.00,0.00,VWS V14.00,2013-07-28 14:32:00,
2013-07-28 09:36:00,69.7,67.3,29.95,SSE,158,0.0,0.0,92,0.00,,---,0.00,0.00,VWS V14.00,2013-07-28 14:36:00,
2013-07-28 09:40:00,69.7,67.3,29.95,SSE,158,0.0,0.0,92,0.00,,---,0.00,0.00,VWS V14.00,2013-07-28 14:40:00,
2013-07-28 09:44:00,69.7,67.3,29.95,SSE,158,0.0,0.0,92,0.00,,---,0.00,0.00,VWS V14.00,2013-07-28 14:44:00,
2013-07-28 09:48:00,69.7,67.3,29.95,SSE,158,0.0,0.0,92,0.00,,---,0.00,0.00,VWS V14.00,2013-07-28 14:48:00,
2013-07-28 09:52:00,69.7,67.3,29.95,SSE,158,0.0,0.0,92,0.00,,---,0.00,0.00,VWS V14.00,2013-07-28 14:52:00,
2013-07-28 09:56:00,69.7,67.3,29.95,SSE,158,0.0,0.0,92,0.00,,---,0.00,0.00,VWS V14.00,2013-07-28 14:56:00,
2013-07-28 10:00:00,69.7,67.3,29.95,SSE,158,0.0,0.0,92,0.00,,---,0.00,0.00,VWS V14.00,2013-07-28 15:00:00,
2013-07-28 10:04:00,69.7,67.3,29.95,SSE,158,0.0,0.0,92,0.00,,---,0.00,0.00,VWS V14.00,2013-07-28 15:04:00,
2013-07-28 10:08:00,69.7,67.3,29.95,SSE,158,0.0,0.0,92,0.00,,---,0.00,0.00,VWS V14.00,2013-07-28 15:08:00,
2013-07-28 10:12:00,69.7,67.3,29.95,SSE,158,0.0,0.0,92,0.00,,---,0.00,0.00,VWS V14.00,2013-07-28 15:12:00,
2013-07-28 10:16:00,69.7,67.3,29.95,SSE,158,0.0,0.0,92,0.00,,---,0.00,0.00,VWS V14.00,2013-07-28 15:16:00,
2013-07-28 10:20:00,69.7,67.3,29.95,SSE,158,0.0,0.0,92,0.00,,---,0.00,0.00,VWS V14.00,2013-07-28 15:20:00,
2013-07-28 10:24:00,69.7,67.3,29.95,SSE,158,0.0,0.0,92,0.00,,---,0.00,0.00,VWS V14.00,2013-07-28 15:24:00,
2013-07-28 10:28:00,82.1,69.6,29.95,SSE,159,4.0,4.0,66,0.00,,---,0.00,772.00,VWS V14.00,2013-07-28 15:28:00,
2013-07-28 10:30:00,82.0,70.4,29.94,SSE,157,4.0,6.0,68,0.00,,---,0.00,772.00,VWS V14.00,2013-07-28 15:30:00,
2013-07-28 10:32:00,82.0,70.4,29.94,SE,134,3.0,6.0,68,0.00,,---,0.00,675.00,VWS V14.00,2013-07-28 15:32:00,
2013-07-28 10:36:00,82.1,71.3,29.94,ESE,118,4.0,6.0,70,0.00,,---,0.00,803.00,VWS V14.00,2013-07-28 15:36:00,
2013-07-28 10:40:00,82.4,71.6,29.94,SE,140,2.0,6.0,70,0.00,,---,0.00,833.00,VWS V14.00,2013-07-28 15:40:00,
2013-07-28 10:45:00,82.5,71.7,29.94,ESE,120,3.0,8.0,70,0.00,,---,0.00,860.00,VWS V14.00,2013-07-28 15:45:00,
2013-07-28 10:49:00,82.5,72.2,29.94,SE,136,2.0,8.0,71,0.00,,---,0.00,791.00,VWS V14.00,2013-07-28 15:49:00,
2013-07-28 10:53:00,83.2,71.6,29.94,East,80,2.0,8.0,68,0.00,,---,0.00,724.00,VWS V14.00,2013-07-28 15:53:00,
2013-07-28 10:57:00,82.9,70.4,29.94,SE,138,4.0,8.0,66,0.00,,---,0.00,701.00,VWS V14.00,2013-07-28 15:57:00,
2013-07-28 11:00:00,83.1,71.9,29.94,SE,126,2.0,8.0,69,0.00,,---,0.00,814.00,VWS V14.00,2013-07-28 16:00:00,
2013-07-28 11:01:00,83.2,71.1,29.94,SE,126,1.0,1.0,67,0.00,,---,0.00,810.00,VWS V14.00,2013-07-28 16:01:00,
2013-07-28 11:05:00,83.6,71.1,29.94,East,88,2.0,5.0,66,0.00,,---,0.00,830.00,VWS V14.00,2013-07-28 16:05:00,
2013-07-28 11:09:00,83.8,70.3,29.94,SE,127,5.0,5.0,64,0.00,,---,0.00,846.00,VWS V14.00,2013-07-28 16:09:00,
2013-07-28 11:13:00,83.9,71.8,29.94,ENE,74,3.0,5.0,67,0.00,,---,0.00,853.00,VWS V14.00,2013-07-28 16:13:00,
2013-07-28 11:17:00,83.8,71.7,29.94,ENE,61,2.0,5.0,67,0.00,,---,0.00,870.00,VWS V14.00,2013-07-28 16:17:00,
2013-07-28 11:21:00,83.9,71.8,29.94,East,96,1.0,5.0,67,0.00,,---,0.00,886.00,VWS V14.00,2013-07-28 16:21:00,
2013-07-28 11:25:00,84.3,71.3,29.94,ESE,113,3.0,5.0,65,0.00,,---,0.00,921.00,VWS V14.00,2013-07-28 16:25:00,
2013-07-28 11:29:00,84.3,71.7,29.94,ESE,105,2.0,5.0,66,0.00,,---,0.00,930.00,VWS V14.00,2013-07-28 16:29:00,
2013-07-28 11:30:00,84.5,71.4,29.94,ESE,119,2.0,5.0,65,0.00,,---,0.00,835.00,VWS V14.00,2013-07-28 16:30:00,
2013-07-28 11:33:00,84.3,70.8,29.94,ENE,74,3.0,3.0,64,0.00,,---,0.00,809.00,VWS V14.00,2013-07-28 16:33:00,
2013-07-28 11:37:00,84.4,71.4,29.94,East,80,3.0,3.0,65,0.00,,---,0.00,912.00,VWS V14.00,2013-07-28 16:37:00,
2013-07-28 11:41:00,84.4,70.9,29.94,ESE,123,4.0,6.0,64,0.00,,---,0.00,900.00,VWS V14.00,2013-07-28 16:41:00,
2013-07-28 11:45:00,85.2,71.2,29.94,SE,127,2.0,6.0,63,0.00,,---,0.00,898.00,VWS V14.00,2013-07-28 16:45:00,
2013-07-28 11:49:00,85.1,70.2,29.94,SSW,202,4.0,6.0,61,0.00,,---,0.00,896.00,VWS V14.00,2013-07-28 16:49:00,
2013-07-28 11:53:00,84.9,70.4,29.94,ENE,77,2.0,6.0,62,0.00,,---,0.00,916.00,VWS V14.00,2013-07-28 16:53:00,
2013-07-28 12:00:00,85.5,71.9,29.93,ESE,102,3.0,6.0,64,0.00,,---,0.00,918.00,VWS V14.00,2013-07-28 17:00:00,
2013-07-28 12:01:00,85.6,72.9,29.93,East,100,2.0,3.0,66,0.00,,---,0.00,904.00,VWS V14.00,2013-07-28 17:01:00,
2013-07-28 12:05:00,85.2,72.1,29.93,East,79,3.0,3.0,65,0.00,,---,0.00,914.00,VWS V14.00,2013-07-28 17:05:00,
2013-07-28 12:09:00,85.2,69.8,29.93,SE,127,1.0,5.0,60,0.00,,---,0.00,911.00,VWS V14.00,2013-07-28 17:09:00,
2013-07-28 12:13:00,85.7,73.0,29.93,SE,129,2.0,5.0,66,0.00,,---,0.00,923.00,VWS V14.00,2013-07-28 17:13:00,
2013-07-28 12:18:00,85.7,71.7,29.93,East,92,1.0,5.0,63,0.00,,---,0.00,942.00,VWS V14.00,2013-07-28 17:18:00,
2013-07-28 12:22:00,86.1,72.5,29.93,ESE,110,2.0,5.0,64,0.00,,---,0.00,1000.00,VWS V14.00,2013-07-28 17:22:00,
2013-07-28 12:26:00,86.0,72.4,29.93,ENE,74,2.0,5.0,64,0.00,,---,0.00,1009.00,VWS V14.00,2013-07-28 17:26:00,
2013-07-28 12:30:00,85.5,71.5,29.93,ENE,74,5.0,5.0,63,0.00,,---,0.00,1007.00,VWS V14.00,2013-07-28 17:30:00,
2013-07-28 12:34:00,85.9,70.4,29.93,SSE,150,1.0,6.0,60,0.00,,---,0.00,983.00,VWS V14.00,2013-07-28 17:34:00,
2013-07-28 12:38:00,86.3,72.2,29.93,ESE,109,3.0,6.0,63,0.00,,---,0.00,997.00,VWS V14.00,2013-07-28 17:38:00,
2013-07-28 12:42:00,86.6,73.0,29.93,ENE,74,3.0,6.0,64,0.00,,---,0.00,1000.00,VWS V14.00,2013-07-28 17:42:00,
2013-07-28 12:46:00,86.3,72.2,29.92,East,79,3.0,6.0,63,0.00,,---,0.00,1025.00,VWS V14.00,2013-07-28 17:46:00,
2013-07-28 12:50:00,86.1,72.5,29.92,ESE,106,4.0,6.0,64,0.00,,---,0.00,810.00,VWS V14.00,2013-07-28 17:50:00,
2013-07-28 12:54:00,86.2,72.1,29.92,East,94,4.0,6.0,63,0.00,,---,0.00,986.00,VWS V14.00,2013-07-28 17:54:00,
2013-07-28 12:58:00,85.8,71.8,29.92,ESE,105,3.0,6.0,63,0.00,,---,0.00,775.00,VWS V14.00,2013-07-28 17:58:00,
2013-07-28 13:00:00,86.1,73.0,29.92,East,79,3.0,6.0,65,0.00,,---,0.00,831.00,VWS V14.00,2013-07-28 18:00:00,
2013-07-28 13:02:00,86.1,72.0,29.92,East,79,2.0,3.0,63,0.00,,---,0.00,831.00,VWS V14.00,2013-07-28 18:02:00,
2013-07-28 13:06:00,86.1,71.6,29.92,SW,216,2.0,3.0,62,0.00,,---,0.00,793.00,VWS V14.00,2013-07-28 18:06:00,
2013-07-28 13:10:00,86.4,73.2,29.92,East,82,3.0,3.0,65,0.00,,---,0.00,865.00,VWS V14.00,2013-07-28 18:10:00,
2013-07-28 13:14:00,86.7,72.1,29.91,East,97,0.0,5.0,62,0.00,,---,0.00,962.00,VWS V14.00,2013-07-28 18:14:00,
2013-07-28 13:18:00,86.9,72.3,29.91,ENE,78,2.0,5.0,62,0.00,,---,0.00,947.00,VWS V14.00,2013-07-28 18:18:00,
2013-07-28 13:22:00,87.1,72.0,29.91,East,82,2.0,5.0,61,0.00,,---,0.00,935.00,VWS V14.00,2013-07-28 18:22:00,
2013-07-28 13:26:00,87.2,72.1,29.91,East,80,3.0,5.0,61,0.00,,---,0.00,942.00,VWS V14.00,2013-07-28 18:26:00,
2013-07-28 13:30:00,86.7,73.1,29.91,ENE,78,2.0,5.0,64,0.00,,---,0.00,949.00,VWS V14.00,2013-07-28 18:30:00,
2013-07-28 13:34:00,86.8,71.3,29.91,ENE,66,1.0,3.0,60,0.00,,---,0.00,958.00,VWS V14.00,2013-07-28 18:34:00,
2013-07-28 13:38:00,86.5,71.5,29.91,ESE,121,3.0,4.0,61,0.00,,---,0.00,341.00,VWS V14.00,2013-07-28 18:38:00,
2013-07-28 13:47:00,87.6,73.0,29.91,East,94,1.0,5.0,62,0.00,,---,0.00,925.00,VWS V14.00,2013-07-28 18:47:00,
2013-07-28 13:51:00,88.1,73.0,29.91,SE,138,2.0,5.0,61,0.00,,---,0.00,939.00,VWS V14.00,2013-07-28 18:51:00,
2013-07-28 13:55:00,88.6,72.9,29.91,SSE,150,2.0,7.0,60,0.00,,---,0.00,974.00,VWS V14.00,2013-07-28 18:55:00,
2013-07-28 13:59:00,89.1,72.9,29.91,East,98,5.0,7.0,59,0.00,,---,0.00,956.00,VWS V14.00,2013-07-28 18:59:00,
2013-07-28 14:00:00,89.1,73.4,29.90,ESE,114,5.0,7.0,60,0.00,,---,0.00,958.00,VWS V14.00,2013-07-28 19:00:00,
2013-07-28 14:03:00,88.7,72.0,29.90,ESE,104,5.0,5.0,58,0.00,,---,0.00,269.00,VWS V14.00,2013-07-28 19:03:00,
2013-07-28 14:07:00,87.5,72.4,29.90,ENE,74,3.0,5.0,61,0.00,,---,0.00,932.00,VWS V14.00,2013-07-28 19:07:00,
2013-07-28 14:11:00,87.9,71.3,29.90,ENE,76,0.0,5.0,58,0.00,,---,0.00,939.00,VWS V14.00,2013-07-28 19:11:00,
2013-07-28 14:15:00,88.8,74.1,29.89,SE,128,2.0,5.0,62,0.00,,---,0.00,912.00,VWS V14.00,2013-07-28 19:15:00,
2013-07-28 14:19:00,89.1,71.9,29.89,SE,125,2.0,5.0,57,0.00,,---,0.00,998.00,VWS V14.00,2013-07-28 19:19:00,
2013-07-28 14:23:00,88.4,72.8,29.89,East,96,1.0,5.0,60,0.00,,---,0.00,998.00,VWS V14.00,2013-07-28 19:23:00,
2013-07-28 14:27:00,88.0,72.9,29.89,East,96,2.0,5.0,61,0.00,,---,0.00,868.00,VWS V14.00,2013-07-28 19:27:00,
2013-07-28 14:30:00,88.2,72.1,29.89,East,98,1.0,5.0,59,0.00,,---,0.00,911.00,VWS V14.00,2013-07-28 19:30:00,
2013-07-28 14:31:00,88.2,73.1,29.89,East,98,0.0,1.0,61,0.00,,---,0.00,911.00,VWS V14.00,2013-07-28 19:31:00,
2013-07-28 14:35:00,88.4,73.2,29.89,South,175,0.0,4.0,61,0.00,,---,0.00,977.00,VWS V14.00,2013-07-28 19:35:00,
2013-07-28 14:39:00,89.2,72.0,29.89,SE,139,0.0,4.0,57,0.00,,---,0.00,1009.00,VWS V14.00,2013-07-28 19:39:00,
2013-07-28 14:43:00,90.1,72.8,29.89,SE,139,0.0,4.0,57,0.00,,---,0.00,991.00,VWS V14.00,2013-07-28 19:43:00,
2013-07-28 14:47:00,88.8,72.1,29.88,ESE,123,3.0,5.0,58,0.00,,---,0.00,225.00,VWS V14.00,2013-07-28 19:47:00,
2013-07-28 14:51:00,88.3,71.7,29.88,East,86,1.0,5.0,58,0.00,,---,0.00,846.00,VWS V14.00,2013-07-28 19:51:00,
2013-07-28 14:55:00,88.2,72.1,29.88,NNE,28,1.0,5.0,59,0.00,,---,0.00,190.00,VWS V14.00,2013-07-28 19:55:00,
2013-07-28 14:59:00,87.5,72.4,29.88,ESE,105,0.0,5.0,61,0.00,,---,0.00,171.00,VWS V14.00,2013-07-28 19:59:00,
2013-07-28 15:00:00,87.5,72.4,29.88,ESE,106,0.0,5.0,61,0.00,,---,0.00,171.00,VWS V14.00,2013-07-28 20:00:00,
2013-07-28 15:03:00,87.6,73.5,29.88,SSE,148,2.0,3.0,63,0.00,,---,0.00,200.00,VWS V14.00,2013-07-28 20:03:00,
2013-07-28 15:07:00,87.9,72.3,29.88,SSE,147,0.0,3.0,60,0.00,,---,0.00,868.00,VWS V14.00,2013-07-28 20:07:00,
2013-07-28 15:11:00,89.6,71.8,29.88,SSE,147,0.0,3.0,56,0.00,,---,0.00,912.00,VWS V14.00,2013-07-28 20:11:00,
2013-07-28 15:15:00,89.3,72.1,29.87,SSE,147,1.0,3.0,57,0.00,,---,0.00,163.00,VWS V14.00,2013-07-28 20:15:00,
2013-07-28 15:19:00,88.2,71.6,29.87,SE,126,2.0,3.0,58,0.00,,---,0.00,167.00,VWS V14.00,2013-07-28 20:19:00,
2013-07-28 15:23:00,88.0,72.4,29.87,SW,227,0.0,3.0,60,0.00,,---,0.00,214.00,VWS V14.00,2013-07-28 20:23:00,
2013-07-28 15:28:00,88.8,73.6,29.87,SSW,194,1.0,3.0,61,0.00,,---,0.00,793.00,VWS V14.00,2013-07-28 20:28:00,
2013-07-28 15:30:00,89.3,72.6,29.87,SSE,166,2.0,3.0,58,0.00,,---,0.00,786.00,VWS V14.00,2013-07-28 20:30:00,
2013-07-28 15:32:00,89.5,73.8,29.87,ENE,60,2.0,2.0,60,0.00,,---,0.00,782.00,VWS V14.00,2013-07-28 20:32:00,
2013-07-28 15:36:00,90.0,74.3,29.87,East,94,2.0,4.0,60,0.00,,---,0.00,780.00,VWS V14.00,2013-07-28 20:36:00,
2013-07-28 15:40:00,90.2,74.4,29.87,SSE,167,0.0,4.0,60,0.00,,---,0.00,758.00,VWS V14.00,2013-07-28 20:40:00,
2013-07-28 15:44:00,90.1,73.3,29.87,SE,144,3.0,4.0,58,0.00,,---,0.00,772.00,VWS V14.00,2013-07-28 20:44:00,
2013-07-28 15:48:00,90.1,73.3,29.86,SE,142,5.0,5.0,58,0.00,,---,0.00,779.00,VWS V14.00,2013-07-28 20:48:00,
2013-07-28 15:52:00,89.6,73.4,29.86,South,177,1.0,5.0,59,0.00,,---,0.00,142.00,VWS V14.00,2013-07-28 20:52:00,
2013-07-28 15:56:00,89.4,72.7,29.86,SSE,150,3.0,6.0,58,0.00,,---,0.00,715.00,VWS V14.00,2013-07-28 20:56:00,
2013-07-28 16:00:00,89.6,72.9,29.86,South,173,1.0,6.0,58,0.00,,---,0.00,733.00,VWS V14.00,2013-07-28 21:00:00,
2013-07-28 16:04:00,89.9,73.2,29.86,South,188,2.0,5.0,58,0.00,,---,0.00,717.00,VWS V14.00,2013-07-28 21:04:00,
2013-07-28 16:08:00,90.2,72.9,29.86,South,188,0.0,5.0,57,0.00,,---,0.00,744.00,VWS V14.00,2013-07-28 21:08:00,
2013-07-28 16:12:00,90.0,73.8,29.86,ESE,112,1.0,7.0,59,0.00,,---,0.00,693.00,VWS V14.00,2013-07-28 21:12:00,
2013-07-28 16:16:00,89.6,73.4,29.86,ESE,112,1.0,7.0,59,0.00,,---,0.00,668.00,VWS V14.00,2013-07-28 21:16:00,
2013-07-28 16:20:00,89.6,71.8,29.86,SSE,166,1.0,7.0,56,0.00,,---,0.00,86.00,VWS V14.00,2013-07-28 21:20:00,
2013-07-28 16:24:00,89.2,73.0,29.86,SE,142,1.0,7.0,59,0.00,,---,0.00,86.00,VWS V14.00,2013-07-28 21:24:00,
2013-07-28 16:28:00,89.5,72.8,29.86,SE,145,2.0,7.0,58,0.00,,---,0.00,599.00,VWS V14.00,2013-07-28 21:28:00,
2013-07-28 16:30:00,89.7,71.4,29.85,SE,145,4.0,7.0,55,0.00,,---,0.00,592.00,VWS V14.00,2013-07-28 21:30:00,
2013-07-28 16:32:00,89.8,72.0,29.85,SE,140,0.0,4.0,56,0.00,,---,0.00,587.00,VWS V14.00,2013-07-28 21:32:00,
2013-07-28 16:36:00,90.2,72.9,29.85,SE,139,0.0,4.0,57,0.00,,---,0.00,578.00,VWS V14.00,2013-07-28 21:36:00,
2013-07-28 16:40:00,90.1,72.8,29.85,SSE,154,3.0,6.0,57,0.00,,---,0.00,557.00,VWS V14.00,2013-07-28 21:40:00,
2013-07-28 16:44:00,89.9,72.1,29.85,SSE,148,2.0,6.0,56,0.00,,---,0.00,540.00,VWS V14.00,2013-07-28 21:44:00,
2013-07-28 16:48:00,90.0,72.7,29.85,SSE,148,1.0,6.0,57,0.00,,---,0.00,527.00,VWS V14.00,2013-07-28 21:48:00,
2013-07-28 16:52:00,90.1,71.8,29.85,SSE,148,0.0,6.0,55,0.00,,---,0.00,524.00,VWS V14.00,2013-07-28 21:52:00,
2013-07-28 16:57:00,90.1,71.8,29.85,SE,138,1.0,6.0,55,0.00,,---,0.00,499.00,VWS V14.00,2013-07-28 21:57:00,
2013-07-28 17:00:00,90.1,73.3,29.84,ESE,112,4.0,6.0,58,0.00,,---,0.00,490.00,VWS V14.00,2013-07-28 22:00:00,
2013-07-28 17:01:00,90.0,72.2,29.84,ESE,119,4.0,4.0,56,0.00,,---,0.00,490.00,VWS V14.00,2013-07-28 22:01:00,
2013-07-28 17:05:00,89.7,73.0,29.84,East,82,2.0,4.0,58,0.00,,---,0.00,471.00,VWS V14.00,2013-07-28 22:05:00,
2013-07-28 17:09:00,89.7,74.0,29.84,East,94,1.0,4.0,60,0.00,,---,0.00,457.00,VWS V14.00,2013-07-28 22:09:00,
2013-07-28 17:13:00,89.6,73.9,29.84,NE,42,4.0,4.0,60,0.00,,---,0.00,445.00,VWS V14.00,2013-07-28 22:13:00,
2013-07-28 17:17:00,89.8,72.0,29.84,SE,137,5.0,5.0,56,0.00,,---,0.00,432.00,VWS V14.00,2013-07-28 22:17:00,
2013-07-28 17:21:00,89.8,72.6,29.84,ESE,120,2.0,6.0,57,0.00,,---,0.00,417.00,VWS V14.00,2013-07-28 22:21:00,
2013-07-28 17:25:00,89.9,73.7,29.84,SE,133,0.0,6.0,59,0.00,,---,0.00,406.00,VWS V14.00,2013-07-28 22:25:00,
2013-07-28 17:29:00,90.0,72.2,29.84,ESE,111,2.0,6.0,56,0.00,,---,0.00,388.00,VWS V14.00,2013-07-28 22:29:00,
2013-07-28 17:30:00,90.0,73.2,29.84,ESE,107,1.0,6.0,58,0.00,,---,0.00,387.00,VWS V14.00,2013-07-28 22:30:00,
2013-07-28 17:33:00,89.9,72.6,29.84,ESE,105,3.0,3.0,57,0.00,,---,0.00,374.00,VWS V14.00,2013-07-28 22:33:00,
2013-07-28 17:37:00,90.0,73.8,29.84,ESE,111,2.0,3.0,59,0.00,,---,0.00,364.00,VWS V14.00,2013-07-28 22:37:00,
2013-07-28 17:41:00,90.0,71.1,29.84,ESE,109,4.0,4.0,54,0.00,,---,0.00,346.00,VWS V14.00,2013-07-28 22:41:00,
2013-07-28 17:45:00,89.9,71.0,29.84,ESE,117,3.0,6.0,54,0.00,,---,0.00,338.00,VWS V14.00,2013-07-28 22:45:00,
2013-07-28 17:49:00,89.9,72.6,29.84,ESE,109,4.0,6.0,57,0.00,,---,0.00,316.00,VWS V14.00,2013-07-28 22:49:00,
2013-07-28 17:53:00,89.8,71.5,29.84,SE,139,2.0,6.0,55,0.00,,---,0.00,306.00,VWS V14.00,2013-07-28 22:53:00,
2013-07-28 18:00:00,89.7,72.4,29.83,East,88,0.0,6.0,57,0.00,,---,0.00,281.00,VWS V14.00,2013-07-28 23:00:00,
2013-07-28 18:01:00,89.7,71.9,29.83,East,90,2.0,2.0,56,0.00,,---,0.00,279.00,VWS V14.00,2013-07-28 23:01:00,
2013-07-28 18:05:00,89.7,71.9,29.83,ESE,107,3.0,3.0,56,0.00,,---,0.00,262.00,VWS V14.00,2013-07-28 23:05:00,
2013-07-28 18:09:00,89.6,72.9,29.83,ESE,118,2.0,3.0,58,0.00,,---,0.00,251.00,VWS V14.00,2013-07-28 23:09:00,
2013-07-28 18:13:00,89.5,71.7,29.83,ESE,113,5.0,5.0,56,0.00,,---,0.00,239.00,VWS V14.00,2013-07-28 23:13:00,
2013-07-28 18:17:00,89.5,72.3,29.83,ESE,115,3.0,5.0,57,0.00,,---,0.00,221.00,VWS V14.00,2013-07-28 23:17:00,
2013-07-28 18:22:00,89.3,71.6,29.83,South,169,2.0,5.0,56,0.00,,---,0.00,207.00,VWS V14.00,2013-07-28 23:22:00,
2013-07-28 18:26:00,89.2,71.5,29.83,ESE,123,2.0,5.0,56,0.00,,---,0.00,193.00,VWS V14.00,2013-07-28 23:26:00,
2013-07-28 18:30:00,89.2,72.0,29.84,East,92,2.0,5.0,57,0.00,,---,0.00,179.00,VWS V14.00,2013-07-28 23:30:00,
2013-07-28 18:34:00,89.0,72.3,29.84,SE,129,2.0,3.0,58,0.00,,---,0.00,167.00,VWS V14.00,2013-07-28 23:34:00,
2013-07-28 18:38:00,88.9,71.2,29.84,SE,124,2.0,4.0,56,0.00,,---,0.00,156.00,VWS V14.00,2013-07-28 23:38:00,
2013-07-28 18:42:00,88.8,71.6,29.84,SE,124,0.0,4.0,57,0.00,,---,0.00,146.00,VWS V14.00,2013-07-28 23:42:00,
2013-07-28 18:46:00,88.6,71.9,29.84,SE,126,2.0,4.0,58,0.00,,---,0.00,130.00,VWS V14.00,2013-07-28 23:46:00,
2013-07-28 18:50:00,88.3,72.7,29.84,SE,127,0.0,4.0,60,0.00,,---,0.00,116.00,VWS V14.00,2013-07-28 23:50:00,
2013-07-28 18:54:00,88.1,73.0,29.84,SE,135,1.0,4.0,61,0.00,,---,0.00,42.00,VWS V14.00,2013-07-28 23:54:00,
2013-07-28 18:58:00,87.8,72.7,29.84,SE,136,1.0,4.0,61,0.00,,---,0.00,56.00,VWS V14.00,2013-07-28 23:58:00,
2013-07-28 19:00:00,87.6,71.5,29.85,SE,136,2.0,4.0,59,0.00,,---,0.00,53.00,VWS V14.00,2013-07-29 00:00:00,
2013-07-28 19:02:00,87.6,72.0,29.85,SE,136,2.0,2.0,60,0.00,,---,0.00,49.00,VWS V14.00,2013-07-29 00:02:00,
2013-07-28 19:06:00,87.5,71.9,29.85,SE,139,1.0,3.0,60,0.00,,---,0.00,33.00,VWS V14.00,2013-07-29 00:06:00,
2013-07-28 19:10:00,87.3,72.2,29.85,SE,140,0.0,3.0,61,0.00,,---,0.00,28.00,VWS V14.00,2013-07-29 00:10:00,
2013-07-28 19:14:00,87.0,71.9,29.86,SE,140,0.0,3.0,61,0.00,,---,0.00,26.00,VWS V14.00,2013-07-29 00:14:00,
2013-07-28 19:18:00,86.9,73.3,29.86,SE,142,0.0,3.0,64,0.00,,---,0.00,25.00,VWS V14.00,2013-07-29 00:18:00,
2013-07-28 19:22:00,86.4,72.3,29.86,SE,142,0.0,3.0,63,0.00,,---,0.00,21.00,VWS V14.00,2013-07-29 00:22:00,
2013-07-28 19:26:00,85.5,73.3,29.86,SE,142,0.0,3.0,67,0.00,,---,0.00,18.00,VWS V14.00,2013-07-29 00:26:00,
2013-07-28 19:30:00,84.2,73.8,29.86,SE,142,0.0,3.0,71,0.00,,---,0.00,16.00,VWS V14.00,2013-07-29 00:30:00,
2013-07-28 19:34:00,83.4,73.0,29.86,SE,142,0.0,0.0,71,0.00,,---,0.00,14.00,VWS V14.00,2013-07-29 00:34:00,
2013-07-28 19:38:00,82.9,73.8,29.86,SE,142,0.0,0.0,74,0.00,,---,0.00,11.00,VWS V14.00,2013-07-29 00:38:00,
2013-07-28 19:42:00,82.6,72.7,29.86,SE,142,0.0,0.0,72,0.00,,---,0.00,7.00,VWS V14.00,2013-07-29 00:42:00,
2013-07-28 19:46:00,82.5,73.0,29.86,SE,142,0.0,0.0,73,0.00,,---,0.00,0.00,VWS V14.00,2013-07-29 00:46:00,
2013-07-28 19:50:00,82.3,72.8,29.86,SE,142,0.0,0.0,73,0.00,,---,0.00,0.00,VWS V14.00,2013-07-29 00:50:00,
2013-07-28 19:54:00,82.2,73.1,29.86,SE,142,0.0,0.0,74,0.00,,---,0.00,0.00,VWS V14.00,2013-07-29 00:54:00,
2013-07-28 19:59:00,82.0,73.3,29.86,SE,142,0.0,0.0,75,0.00,,---,0.00,0.00,VWS V14.00,2013-07-29 00:59:00,
2013-07-28 20:00:00,81.9,73.2,29.86,SE,142,0.0,0.0,75,0.00,,---,0.00,0.00,VWS V14.00,2013-07-29 01:00:00,
2013-07-28 20:19:00,80.6,74.6,29.87,SE,142,0.0,0.0,82,0.00,,---,0.00,0.00,VWS V14.00,2013-07-29 01:19:00,
2013-07-28 20:23:00,80.2,74.6,29.87,SE,142,0.0,0.0,83,0.00,,---,0.00,0.00,VWS V14.00,2013-07-29 01:23:00,
2013-07-28 20:30:00,79.8,74.5,29.87,SE,142,0.0,0.0,84,0.00,,---,0.00,0.00,VWS V14.00,2013-07-29 01:30:00,
2013-07-28 20:31:00,79.7,74.4,29.87,SE,142,0.0,0.0,84,0.00,,---,0.00,0.00,VWS V14.00,2013-07-29 01:31:00,
2013-07-28 20:35:00,79.7,74.8,29.87,SE,142,0.0,0.0,85,0.00,,---,0.00,0.00,VWS V14.00,2013-07-29 01:35:00,
2013-07-28 20:39:00,79.7,74.8,29.87,SE,142,0.0,0.0,85,0.00,,---,0.00,0.00,VWS V14.00,2013-07-29 01:39:00,
2013-07-28 20:48:00,81.6,73.7,29.88,ESE,113,1.0,4.0,77,0.00,,---,0.00,0.00,VWS V14.00,2013-07-29 01:48:00,
2013-07-28 20:56:00,83.6,74.0,29.88,ESE,119,1.0,4.0,73,0.00,,---,0.00,0.00,VWS V14.00,2013-07-29 01:56:00,
2013-07-28 21:00:00,83.9,73.5,29.88,ESE,116,4.0,4.0,71,0.00,,---,0.00,0.00,VWS V14.00,2013-07-29 02:00:00,
2013-07-28 21:04:00,83.9,73.1,29.88,ESE,111,2.0,3.0,70,0.00,,---,0.00,0.00,VWS V14.00,2013-07-29 02:04:00,
2013-07-28 21:08:00,83.9,72.7,29.88,ESE,113,3.0,3.0,69,0.00,,---,0.00,0.00,VWS V14.00,2013-07-29 02:08:00,
2013-07-28 21:12:00,83.9,72.7,29.88,ESE,105,4.0,4.0,69,0.00,,---,0.00,0.00,VWS V14.00,2013-07-29 02:12:00,
2013-07-28 21:16:00,83.9,73.1,29.88,ESE,105,2.0,4.0,70,0.00,,---,0.00,0.00,VWS V14.00,2013-07-29 02:16:00,
2013-07-28 21:20:00,83.9,72.7,29.88,ESE,110,2.0,4.0,69,0.00,,---,0.00,0.00,VWS V14.00,2013-07-29 02:20:00,
2013-07-28 21:24:00,83.8,72.6,29.88,ESE,108,2.0,4.0,69,0.00,,---,0.00,0.00,VWS V14.00,2013-07-29 02:24:00,
2013-07-28 21:30:00,83.7,72.9,29.89,ESE,105,3.0,5.0,70,0.00,,---,0.00,0.00,VWS V14.00,2013-07-29 02:30:00,
2013-07-28 21:36:00,83.6,72.4,29.89,ESE,107,1.0,5.0,69,0.00,,---,0.00,0.00,VWS V14.00,2013-07-29 02:36:00,
2013-07-28 21:40:00,83.4,72.6,29.89,ESE,111,3.0,5.0,70,0.00,,---,0.00,0.00,VWS V14.00,2013-07-29 02:40:00,
2013-07-28 21:44:00,83.3,72.9,29.90,ESE,115,3.0,5.0,71,0.00,,---,0.00,0.00,VWS V14.00,2013-07-29 02:44:00,
2013-07-28 21:48:00,83.1,72.7,29.90,ESE,116,2.0,5.0,71,0.00,,---,0.00,0.00,VWS V14.00,2013-07-29 02:48:00,
2013-07-28 21:52:00,83.0,72.6,29.90,ESE,112,3.0,5.0,71,0.00,,---,0.00,0.00,VWS V14.00,2013-07-29 02:52:00,
2013-07-28 21:57:00,82.9,72.1,29.90,ESE,123,2.0,5.0,70,0.00,,---,0.00,0.00,VWS V14.00,2013-07-29 02:57:00,
2013-07-28 22:00:00,82.9,72.1,29.90,ESE,119,4.0,5.0,70,0.00,,---,0.00,0.00,VWS V14.00,2013-07-29 03:00:00,
2013-07-28 22:01:00,82.9,72.1,29.90,ESE,121,2.0,3.0,70,0.00,,---,0.00,0.00,VWS V14.00,2013-07-29 03:01:00,
2013-07-28 22:05:00,82.8,72.0,29.90,ESE,115,3.0,4.0,70,0.00,,---,0.00,0.00,VWS V14.00,2013-07-29 03:05:00,
2013-07-28 22:09:00,82.8,72.4,29.90,ESE,119,5.0,5.0,71,0.00,,---,0.00,0.00,VWS V14.00,2013-07-29 03:09:00,
2013-07-28 22:13:00,82.7,72.3,29.90,ESE,115,3.0,5.0,71,0.00,,---,0.00,0.00,VWS V14.00,2013-07-29 03:13:00,
2013-07-28 22:21:00,82.8,72.4,29.91,ESE,109,4.0,7.0,71,0.00,,---,0.00,0.00,VWS V14.00,2013-07-29 03:21:00,
2013-07-28 22:25:00,82.7,72.3,29.91,ESE,119,2.0,7.0,71,0.00,,---,0.00,0.00,VWS V14.00,2013-07-29 03:25:00,
2013-07-28 22:29:00,82.6,71.8,29.91,SE,130,3.0,7.0,70,0.00,,---,0.00,0.00,VWS V14.00,2013-07-29 03:29:00,
2013-07-28 22:30:00,82.6,72.2,29.91,ESE,118,3.0,7.0,71,0.00,,---,0.00,0.00,VWS V14.00,2013-07-29 03:30:00,
2013-07-28 22:33:00,82.5,72.2,29.91,ESE,111,2.0,4.0,71,0.00,,---,0.00,0.00,VWS V14.00,2013-07-29 03:33:00,
2013-07-28 22:37:00,82.5,72.2,29.91,ESE,119,3.0,4.0,71,0.00,,---,0.00,0.00,VWS V14.00,2013-07-29 03:37:00,
2013-07-28 22:41:00,82.5,72.2,29.91,SE,125,5.0,5.0,71,0.00,,---,0.00,0.00,VWS V14.00,2013-07-29 03:41:00,
2013-07-28 22:45:00,82.5,72.6,29.91,ESE,121,4.0,6.0,72,0.00,,---,0.00,0.00,VWS V14.00,2013-07-29 03:45:00,
2013-07-28 22:49:00,82.5,72.6,29.91,ESE,121,4.0,6.0,72,0.00,,---,0.00,0.00,VWS V14.00,2013-07-29 03:49:00,
2013-07-28 22:53:00,82.5,72.6,29.91,SE,128,4.0,6.0,72,0.00,,---,0.00,0.00,VWS V14.00,2013-07-29 03:53:00,
2013-07-28 23:00:00,82.6,72.2,29.91,SE,124,6.0,11.0,71,0.00,,---,0.00,0.00,VWS V14.00,2013-07-29 04:00:00,
2013-07-28 23:01:00,82.7,72.8,29.91,ESE,115,4.0,7.0,72,0.00,,---,0.00,0.00,VWS V14.00,2013-07-29 04:01:00,
2013-07-28 23:05:00,82.7,72.3,29.91,SE,138,5.0,7.0,71,0.00,,---,0.00,0.00,VWS V14.00,2013-07-29 04:05:00,
2013-07-28 23:09:00,82.5,72.6,29.91,ESE,113,5.0,7.0,72,0.00,,---,0.00,0.00,VWS V14.00,2013-07-29 04:09:00,
2013-07-28 23:13:00,82.5,72.6,29.91,ESE,105,5.0,7.0,72,0.00,,---,0.00,0.00,VWS V14.00,2013-07-29 04:13:00,
2013-07-28 23:18:00,82.4,72.5,29.92,ESE,116,3.0,7.0,72,0.00,,---,0.00,0.00,VWS V14.00,2013-07-29 04:18:00,
2013-07-28 23:22:00,82.2,72.7,29.92,ESE,121,3.0,7.0,73,0.00,,---,0.00,0.00,VWS V14.00,2013-07-29 04:22:00,
2013-07-28 23:26:00,82.1,72.2,29.92,ESE,104,4.0,7.0,72,0.00,,---,0.00,0.00,VWS V14.00,2013-07-29 04:26:00,
2013-07-28 23:30:00,82.0,72.1,29.91,ESE,111,4.0,7.0,72,0.00,,---,0.00,0.00,VWS V14.00,2013-07-29 04:30:00,
2013-07-28 23:34:00,81.9,72.4,29.91,SE,126,4.0,7.0,73,0.00,,---,0.00,0.00,VWS V14.00,2013-07-29 04:34:00,
2013-07-28 23:38:00,81.8,72.3,29.91,SE,130,4.0,7.0,73,0.00,,---,0.00,0.00,VWS V14.00,2013-07-29 04:38:00,
2013-07-28 23:42:00,81.7,72.2,29.91,SE,128,4.0,7.0,73,0.00,,---,0.00,0.00,VWS V14.00,2013-07-29 04:42:00,
2013-07-28 23:46:00,81.6,72.1,29.91,SE,130,3.0,7.0,73,0.00,,---,0.00,0.00,VWS V14.00,2013-07-29 04:46:00,
2013-07-28 23:50:00,81.6,72.5,29.91,SE,144,4.0,9.0,74,0.00,,---,0.00,0.00,VWS V14.00,2013-07-29 04:50:00,
2013-07-28 23:54:00,81.5,72.0,29.91,SE,132,7.0,9.0,73,0.00,,---,0.00,0.00,VWS V14.00,2013-07-29 04:54:00,
2013-07-28 23:58:00,81.3,72.2,29.91,SE,140,5.0,9.0,74,0.00,,---,0.00,0.00,VWS V14.00,2013-07-29 04:58:00,